Regional Weather Roundup
Issued by NWS Goodland, KS

Home | Current Version | Previous Version | Text Only | Print | Product List | Glossary Off
Versions: 1 2 3 4 5 6 7 8 9 10 11 12 13 14 15 16 17 18 19 20 21 22 23 24 25 26 27 28 29 30 31 32 33 34 35 36 37 38 39 40 41 42 43 44 45 46 47 48 49 50

000
ASUS43 KGLD 160708
RWRGLD

GOODLAND FORECAST AREA HOURLY WEATHER ROUNDUP
NATIONAL WEATHER SERVICE GOODLAND KS
100 AM MDT MON OCT 16 2017

...OFFICIAL OBSERVATIONS...

CITY           SKY/WX    TMP DP  RH WIND       PRES   REMARKS
GOODLAND KS    CLEAR     47  27  45 SW12      30.37F
HILL CITY KS   CLEAR     37  34  89 W3        30.39S
IMPERIAL NEB   CLOUDY    37  27  67 W3        30.36F
MCCOOK NEB     CLEAR     35  31  85 CALM      30.36F
AKRON CO       CLOUDY    46  24  42 S10       30.36F
BURLINGTON CO  CLOUDY    39  27  62 S7        30.39F
LIMON CO       CLOUDY    26  23  88 N7        30.42F
$$

...UNOFFICIAL OBSERVATIONS...

CITY           SKY/WX    TMP DP  RH WIND       PRES   REMARKS
NORTON KS      CLEAR     37  28  70 SW7       30.36
SHARON SPRINGS   N/A     43  30  60 CALM        N/A
TRENTON NEB      N/A     43  32  65 CALM        N/A
KIT CARSON CO    N/A     35  26  70 CALM        N/A
YUMA CO        FAIR      37  28  70 SW9       30.35F
$$




USA.gov is the U.S. government's official web portal to all federal, state and local government web resources and services.